Home   Weather   Nøtterøy   Past weeks

Flag for Norway Past Weather in Nøtterøy, Norway — Yesterday and Last 2 Weeks

Now
30 °F

Mostly cloudy.


Feels Like: 27 °F
Forecast: 30 / 38 °F
Wind: 3 mph from Northeast

Location: Torp

Current Time: Jan 18, 2017 at 12:51:57 am

Latest Report: Jan 18, 2017 at 12:20 am


Visibility: 3 mi

Pressure: 30.36 "Hg

Humidity: 100%

Dew Point: 30 °F

Location of NøtterøyLocation

Past Weather in Nøtterøy — Graph

°F

Nøtterøy Temperature Yesterday

Maximum temperature yesterday: 37 °F (at 9:50 pm)
Minimum temperature yesterday: 27 °F (at 12:20 am)
Average temperature yesterday: 31 °F

High & Low Weather Summary for the Past Weeks

 TemperatureHumidityPressure
High43 °F (Jan 10, 11:50 pm)100% (Jan 3, 1:50 pm)30.66 "Hg (Jan 3, 1:50 pm)
Low12 °F (Jan 5, 7:20 am)40% (Jan 4, 11:20 am)28.50 "Hg (Jan 11, 1:50 pm)
Average31 °F80%29.79 "Hg
* Reported Jan 2 11:20 pm — Jan 17 11:20 pm, Nøtterøy, Weather by CustomWeather, © 2017

Note: Actual official high and low records may vary slightly from our data, if they occured in-between our weather recording intervals... More about our weather records

Advertising

Nøtterøy Weather History for the Previous 24 Hours

Scroll right to see more
 ConditionsComfort  
Time TempWeatherWind HumidityBarometerVisibility
11:20 pm
Tue, Jan 17
32 °FIce fog.7 mph100%30.36 "Hg1 mi
10:50 pm32 °FMostly cloudy.6 mph100%30.36 "Hg4 mi
10:20 pm36 °FPassing clouds.5 mph100%30.36 "HgN/A
9:50 pm37 °FClear.8 mph93%30.33 "Hg10 mi
9:20 pm36 °FClear.8 mph100%30.33 "Hg10 mi
8:50 pm36 °FClear.9 mph100%30.33 "Hg10 mi
8:20 pm36 °FPassing clouds.9 mph100%30.36 "HgN/A
7:50 pm36 °FPartly cloudy.7 mph100%30.36 "HgN/A
7:20 pm36 °FDrizzle. Overcast.6 mph100%30.36 "HgN/A
6:50 pm36 °FLight rain. Overcast.8 mph100%30.36 "HgN/A
6:20 pm34 °FDrizzle. Overcast.5 mph100%30.36 "HgN/A
5:50 pm34 °FPartly cloudy.6 mph100%30.36 "HgN/A
5:20 pm34 °FLight rain. Passing clouds.6 mph100%30.36 "HgN/A
4:50 pm32 °FLight rain. Passing clouds.5 mph100%30.36 "HgN/A
4:20 pm32 °FLight rain. Passing clouds.3 mph100%30.36 "HgN/A
3:50 pm34 °FLight rain. Overcast.3 mph93%30.36 "HgN/A
3:20 pm34 °FOvercast.5 mph87%30.36 "HgN/A
2:50 pm32 °FDrizzle. Overcast.6 mph93%30.36 "HgN/A
2:20 pm32 °FDrizzle. Broken clouds.6 mph93%30.36 "HgN/A
1:50 pm32 °FDrizzle. Partly sunny.3 mph93%30.36 "HgN/A
1:20 pm32 °FSunny.6 mph87%30.36 "Hg10 mi
12:50 pm32 °FSunny.7 mph87%30.36 "Hg10 mi
12:20 pm32 °FSunny.5 mph87%30.36 "Hg10 mi
11:50 am30 °FSunny.3 mph93%30.39 "Hg10 mi
11:20 am30 °FSunny.5 mph93%30.39 "Hg10 mi
10:50 am30 °FSunny.6 mph93%30.39 "Hg10 mi
10:20 am28 °FPartly sunny.6 mph100%30.39 "HgN/A
9:50 am28 °FPartly sunny.7 mph100%30.39 "HgN/A
9:20 am27 °FScattered clouds.8 mph100%30.39 "HgN/A
8:50 am27 °FPassing clouds.7 mph100%30.39 "HgN/A
8:20 am27 °FPassing clouds.7 mph100%30.39 "HgN/A
7:50 am27 °FLight freezing rain. Partly cloudy.8 mph100%30.36 "HgN/A
7:20 am27 °FLight snow. Passing clouds.9 mph100%30.39 "Hg5 mi
6:50 am27 °FLight snow. Passing clouds.9 mph100%30.39 "HgN/A
6:20 am27 °FLight snow. Ice fog.9 mph100%30.39 "Hg6 mi
5:50 am28 °FLight snow. Ice fog.10 mph74%30.39 "Hg6 mi
5:20 am28 °FPassing clouds.9 mph64%30.39 "HgN/A
4:50 am28 °FPassing clouds.9 mph64%30.39 "HgN/A
4:20 am28 °FMostly cloudy.7 mph64%30.39 "HgN/A
3:50 am28 °FOvercast.8 mph69%30.39 "HgN/A
3:20 am28 °FMostly cloudy.7 mph69%30.39 "HgN/A
2:50 am28 °FOvercast.7 mph74%30.42 "HgN/A
2:20 am28 °FPartly cloudy.10 mph69%30.42 "HgN/A
1:50 am28 °FPartly cloudy.7 mph69%30.42 "HgN/A
1:20 am28 °FChilly.9 mph59%30.42 "HgN/A
12:50 am27 °FPassing clouds.7 mph64%30.42 "HgN/A
12:20 am27 °FMostly cloudy.8 mph64%30.42 "HgN/A
Weather by CustomWeather, © 2017

See weather overviewHow to use our weather pages